Tiempo cada hora Cebulki

Hoy, 19 Enero, Martes

Tiempo Temperatura Precipitaciones Viento Presión Humedad
00:00 -17°C° 0 mm 3 mps 744 mmHg 91%
01:00 -16°C° 0 mm 3 mps 744 mmHg 91%
02:00 -16°C° 0 mm 3 mps 744 mmHg 91%
03:00 -16°C° 0 mm 3 mps 743 mmHg 91%
04:00 -17°C° 0 mm 4 mps 743 mmHg 91%
05:00 -16°C° 0 mm 4 mps 742 mmHg 91%
06:00 -16°C° 0 mm 4 mps 742 mmHg 92%
07:00 -16°C° 0 mm 4 mps 742 mmHg 93%
08:00 -15°C° 0.1 mm 4 mps 741 mmHg 93%
09:00 -14°C° 0.1 mm 4 mps 741 mmHg 93%
10:00 -12°C° 0.1 mm 4 mps 741 mmHg 93%
11:00 -11°C° 0.1 mm 4 mps 741 mmHg 93%
12:00 -10°C° 0.1 mm 4 mps 740 mmHg 93%
13:00 -9°C° 0.1 mm 4 mps 740 mmHg 93%
14:00 -9°C° 0.2 mm 4 mps 740 mmHg 94%
15:00 -9°C° 0.2 mm 4 mps 739 mmHg 95%
16:00 -8°C° 0.2 mm 3 mps 739 mmHg 95%
17:00 -7°C° 0.1 mm 3 mps 739 mmHg 95%
18:00 -7°C° 0.1 mm 3 mps 739 mmHg 96%
19:00 -6°C° 0.1 mm 3 mps 738 mmHg 96%
20:00 -5°C° 0.1 mm 3 mps 738 mmHg 96%
21:00 -4°C° 0.1 mm 4 mps 738 mmHg 97%
22:00 -3°C° 0.1 mm 4 mps 738 mmHg 97%
23:00 -3°C° 0.1 mm 4 mps 737 mmHg 97%

Mañana, 20 Enero, Miércoles

Tiempo Temperatura Precipitaciones Viento Presión Humedad
00:00 -3°C° 0.1 mm 4 mps 737 mmHg 97%
01:00 -3°C° 0.1 mm 4 mps 737 mmHg 97%
02:00 -4°C° 0.3 mm 5 mps 736 mmHg 97%
03:00 -4°C° 0.3 mm 5 mps 736 mmHg 97%
04:00 -4°C° 0.3 mm 5 mps 735 mmHg 96%
05:00 -4°C° 0.1 mm 5 mps 735 mmHg 96%
06:00 -4°C° 0.1 mm 5 mps 735 mmHg 97%
07:00 -4°C° 0.1 mm 5 mps 735 mmHg 97%
08:00 -2°C° 0.1 mm 5 mps 735 mmHg 97%
09:00 -1°C° 0.1 mm 4 mps 735 mmHg 98%
10:00 -1°C° 0.1 mm 4 mps 735 mmHg 99%
11:00 -1°C° 0 mm 4 mps 735 mmHg 99%
12:00 -1°C° 0 mm 5 mps 735 mmHg 99%
13:00 -1°C° 0 mm 5 mps 735 mmHg 99%
14:00 -1°C° 0 mm 5 mps 735 mmHg 98%
15:00 -1°C° 0 mm 5 mps 735 mmHg 97%
16:00 -1°C° 0 mm 5 mps 734 mmHg 95%
17:00 -1°C° 0.1 mm 5 mps 734 mmHg 95%
18:00 -1°C° 0.1 mm 5 mps 734 mmHg 95%
19:00 -1°C° 0.1 mm 5 mps 735 mmHg 95%
20:00 -1°C° 0.2 mm 5 mps 735 mmHg 95%
21:00 -1°C° 0.2 mm 5 mps 735 mmHg 95%
22:00 -1°C° 0.2 mm 5 mps 735 mmHg 94%
23:00 -1°C° 0 mm 4 mps 735 mmHg 92%

Pasado mañana, 21 Enero, Jueves

Tiempo Temperatura Precipitaciones Viento Presión Humedad
00:00 -1°C° 0 mm 4 mps 735 mmHg 90%
01:00 -1°C° 0 mm 4 mps 735 mmHg 88%
02:00 -2°C° 0 mm 4 mps 734 mmHg 88%
03:00 -2°C° 0 mm 4 mps 734 mmHg 88%
04:00 -2°C° 0 mm 4 mps 734 mmHg 88%
05:00 -2°C° 0 mm 4 mps 734 mmHg 87%
06:00 -2°C° 0 mm 5 mps 734 mmHg 86%
07:00 -2°C° 0 mm 5 mps 734 mmHg 85%
08:00 -1°C° 0 mm 5 mps 734 mmHg 86%
09:00 -1°C° 0 mm 5 mps 734 mmHg 87%
10:00 -1°C° 0 mm 5 mps 734 mmHg 88%
11:00 -1°C° 0 mm 5 mps 734 mmHg 91%
12:00 0°C° 0 mm 5 mps 734 mmHg 95%
13:00 0°C° 0 mm 4 mps 734 mmHg 98%
14:00 0°C° 0 mm 4 mps 734 mmHg 96%
15:00 -1°C° 0 mm 4 mps 733 mmHg 94%
16:00 -1°C° 0 mm 4 mps 733 mmHg 92%
17:00 -1°C° 0 mm 4 mps 733 mmHg 91%
18:00 -1°C° 0 mm 5 mps 732 mmHg 91%
19:00 -1°C° 0 mm 5 mps 732 mmHg 91%
20:00 -1°C° 0 mm 5 mps 732 mmHg 91%
21:00 -2°C° 0 mm 5 mps 732 mmHg 90%
22:00 -2°C° 0 mm 4 mps 732 mmHg 90%
23:00 -2°C° 0 mm 4 mps 732 mmHg 91%

22 Enero, Viernes

Tiempo Temperatura Precipitaciones Viento Presión Humedad
00:00 -2°C° 0 mm 4 mps 731 mmHg 92%
01:00 -3°C° 0 mm 4 mps 731 mmHg 92%
02:00 -3°C° 0 mm 4 mps 731 mmHg 92%
03:00 -3°C° 0 mm 4 mps 731 mmHg 92%
04:00 -3°C° 0 mm 4 mps 731 mmHg 92%
05:00 -2°C° 0 mm 4 mps 730 mmHg 91%
06:00 -2°C° 0 mm 4 mps 730 mmHg 91%
07:00 -1°C° 0 mm 4 mps 730 mmHg 91%
08:00 -1°C° 0 mm 4 mps 730 mmHg 91%
09:00 -1°C° 0 mm 5 mps 729 mmHg 91%
10:00 -1°C° 0 mm 6 mps 729 mmHg 91%
11:00 0°C° 0 mm 5 mps 728 mmHg 93%
12:00 0°C° 0 mm 5 mps 728 mmHg 95%
13:00 0°C° 0 mm 5 mps 728 mmHg 97%
14:00 0°C° 0 mm 5 mps 727 mmHg 97%
15:00 0°C° 0 mm 4 mps 727 mmHg 96%
16:00 -1°C° 0 mm 4 mps 727 mmHg 96%
17:00 0°C° 0 mm 3 mps 728 mmHg 96%
18:00 0°C° 0 mm 3 mps 728 mmHg 95%
19:00 0°C° 0 mm 3 mps 729 mmHg 95%
20:00 0°C° 0 mm 3 mps 729 mmHg 95%
21:00 0°C° 0 mm 3 mps 729 mmHg 95%
22:00 0°C° 0 mm 3 mps 730 mmHg 96%
23:00 0°C° 0 mm 3 mps 730 mmHg 94%

23 Enero, Sábado

Tiempo Temperatura Precipitaciones Viento Presión Humedad
00:00 0°C° 0 mm 3 mps 730 mmHg 92%
01:00 0°C° 0 mm 3 mps 731 mmHg 91%
02:00 -1°C° 0 mm 3 mps 731 mmHg 91%
03:00 -1°C° 0 mm 3 mps 731 mmHg 90%
04:00 -2°C° 0 mm 4 mps 732 mmHg 90%
05:00 -1°C° 0 mm 3 mps 732 mmHg 91%
06:00 -2°C° 0 mm 3 mps 732 mmHg 91%
07:00 -2°C° 0 mm 3 mps 733 mmHg 91%
08:00 -2°C° 0 mm 3 mps 733 mmHg 91%
09:00 -2°C° 0 mm 3 mps 733 mmHg 91%
10:00 -1°C° 0 mm 3 mps 734 mmHg 91%
11:00 -1°C° 0 mm 3 mps 734 mmHg 92%
12:00 -1°C° 0 mm 3 mps 734 mmHg 93%
13:00 0°C° 0 mm 3 mps 734 mmHg 94%
14:00 -1°C° 0 mm 2 mps 734 mmHg 94%
15:00 -2°C° 0 mm 2 mps 733 mmHg 94%
16:00 -2°C° 0 mm 2 mps 733 mmHg 93%
17:00 -2°C° 0 mm 2 mps 733 mmHg 93%
18:00 -2°C° 0 mm 3 mps 733 mmHg 93%
19:00 -4°C° 0 mm 3 mps 733 mmHg 93%
20:00 -4°C° 0 mm 3 mps 733 mmHg 93%
21:00 -3°C° 0 mm 2 mps 732 mmHg 93%
22:00 -3°C° 0 mm 2 mps 732 mmHg 93%
23:00 -4°C° 0 mm 3 mps 731 mmHg 92%

24 Enero, Domingo

Tiempo Temperatura Precipitaciones Viento Presión Humedad
00:00 -2°C° 0 mm 3 mps 731 mmHg 92%
01:00 -3°C° 0 mm 4 mps 730 mmHg 91%
02:00 -3°C° 0.2 mm 4 mps 729 mmHg 92%
03:00 -4°C° 0.2 mm 5 mps 728 mmHg 93%
04:00 -4°C° 0.2 mm 5 mps 727 mmHg 93%
05:00 -4°C° 1.5 mm 6 mps 726 mmHg 95%
06:00 -4°C° 1.5 mm 6 mps 725 mmHg 96%
07:00 -3°C° 1.5 mm 6 mps 724 mmHg 97%
08:00 -2°C° 1.2 mm 5 mps 724 mmHg 98%
09:00 -1°C° 1.2 mm 3 mps 723 mmHg 98%
10:00 -1°C° 1.2 mm 2 mps 722 mmHg 99%
11:00 -1°C° 0.8 mm 3 mps 722 mmHg 99%
12:00 -2°C° 0.8 mm 4 mps 722 mmHg 98%
13:00 -2°C° 0.8 mm 5 mps 722 mmHg 98%
14:00 -3°C° 0.1 mm 6 mps 722 mmHg 96%
15:00 -3°C° 0.1 mm 6 mps 722 mmHg 93%
16:00 -4°C° 0.1 mm 7 mps 722 mmHg 90%
17:00 -3°C° 0 mm 7 mps 722 mmHg 92%
18:00 -3°C° 0 mm 7 mps 722 mmHg 93%
19:00 -3°C° 0 mm 6 mps 722 mmHg 94%
20:00 -3°C° 0.1 mm 7 mps 722 mmHg 94%
21:00 -3°C° 0.1 mm 7 mps 723 mmHg 95%
22:00 -3°C° 0.1 mm 7 mps 723 mmHg 95%
23:00 -4°C° 0.3 mm 7 mps 723 mmHg 95%
Mostrar más